SWA279 KOAK-KONT

Flight info

Callsign SWA279
Flight time 0h 59m
Altitude 31000
Route CNDEL5 KAYEX LOSHN EHF ZIGGY8
Aircraft B38M/M-SADE2E3GHIJ4J7M3P2RWZ/LB1D1

Departure

Time 2026-04-30 11:04
Airport San Francisco Bay Oakland International Airport (KOAK)

Arrival

Time 2026-04-30 12:04
Airport Ontario International Airport (KONT)
Time Latitude Longitude Altitude Speed Heading
2026-04-30 10:36 37.71080 -122.21241 11 ft 0 kts 63°
2026-04-30 10:54 37.71073 -122.21257 13 ft 4 kts 64°
2026-04-30 10:55 37.71062 -122.21287 12 ft 4 kts 68°
2026-04-30 10:55 37.71055 -122.21316 12 ft 3 kts 79°
2026-04-30 10:55 37.71054 -122.21333 12 ft 2 kts 105°
2026-04-30 10:55 37.71059 -122.21345 12 ft 2 kts 149°
2026-04-30 10:56 37.71070 -122.21351 16 ft 2 kts 168°
2026-04-30 10:56 37.71081 -122.21353 15 ft 2 kts 174°
2026-04-30 10:56 37.71082 -122.21353 12 ft 0 kts 174°
2026-04-30 11:00 37.71074 -122.21352 15 ft 3 kts 174°
2026-04-30 11:00 37.71039 -122.21356 12 ft 8 kts 199°
2026-04-30 11:00 37.70981 -122.21404 11 ft 13 kts 215°
2026-04-30 11:00 37.70894 -122.21487 11 ft 18 kts 224°
2026-04-30 11:01 37.70825 -122.21642 11 ft 23 kts 224°
2026-04-30 11:01 37.70684 -122.21774 13 ft 27 kts 191°
2026-04-30 11:01 37.70531 -122.21624 12 ft 31 kts 130°
2026-04-30 11:01 37.70405 -122.21437 11 ft 23 kts 131°
2026-04-30 11:02 37.70348 -122.21393 11 ft 8 kts 164°
2026-04-30 11:02 37.70303 -122.21373 13 ft 5 kts 160°
2026-04-30 11:02 37.70260 -122.21355 12 ft 7 kts 168°
2026-04-30 11:02 37.70229 -122.21358 12 ft 0 kts 200°
2026-04-30 11:03 37.70222 -122.21364 13 ft 2 kts 217°
2026-04-30 11:03 37.70193 -122.21390 12 ft 12 kts 218°
2026-04-30 11:03 37.70223 -122.21537 11 ft 27 kts 310°
2026-04-30 11:04 37.71123 -122.22899 62 ft 169 kts 309°
2026-04-30 11:04 37.71913 -122.24080 835 ft 174 kts 307°
2026-04-30 11:04 37.72675 -122.25267 1739 ft 181 kts 309°
2026-04-30 11:04 37.73540 -122.26561 2097 ft 204 kts 310°
2026-04-30 11:05 37.74511 -122.28005 2146 ft 223 kts 310°
2026-04-30 11:05 37.75538 -122.29525 2018 ft 234 kts 310°
2026-04-30 11:05 37.76618 -122.31130 2479 ft 240 kts 310°
2026-04-30 11:05 37.77712 -122.32758 3178 ft 252 kts 310°
2026-04-30 11:06 37.78789 -122.34534 3963 ft 257 kts 300°
2026-04-30 11:06 37.79282 -122.36733 4728 ft 265 kts 270°
2026-04-30 11:06 37.78813 -122.39010 5467 ft 274 kts 240°
2026-04-30 11:06 37.77513 -122.40756 6260 ft 278 kts 211°
2026-04-30 11:07 37.75674 -122.41497 7006 ft 279 kts 183°
2026-04-30 11:07 37.73727 -122.41722 7726 ft 285 kts 191°
2026-04-30 11:07 37.71803 -122.42227 8499 ft 287 kts 191°
2026-04-30 11:07 37.69821 -122.42720 9280 ft 291 kts 191°
2026-04-30 11:08 37.67818 -122.43199 9857 ft 295 kts 190°
2026-04-30 11:08 37.65800 -122.43671 9969 ft 294 kts 190°
2026-04-30 11:08 37.63781 -122.44133 9981 ft 294 kts 190°
2026-04-30 11:08 37.61762 -122.44591 9982 ft 294 kts 190°
2026-04-30 11:09 37.59744 -122.45045 9987 ft 294 kts 190°
2026-04-30 11:09 37.57747 -122.45494 9986 ft 294 kts 190°
2026-04-30 11:09 37.55731 -122.45946 9986 ft 294 kts 190°
2026-04-30 11:09 37.53717 -122.46398 9986 ft 294 kts 190°
2026-04-30 11:10 37.51694 -122.46842 9997 ft 300 kts 187°
2026-04-30 11:10 37.49565 -122.46650 10289 ft 317 kts 162°
2026-04-30 11:10 37.47607 -122.45273 10629 ft 332 kts 137°
2026-04-30 11:10 37.46094 -122.43016 11119 ft 342 kts 127°
2026-04-30 11:11 37.44607 -122.40668 11739 ft 348 kts 128°
2026-04-30 11:11 37.43078 -122.38279 12483 ft 352 kts 128°
2026-04-30 11:11 37.41518 -122.35850 13188 ft 358 kts 128°
2026-04-30 11:11 37.39937 -122.33394 13931 ft 362 kts 128°
2026-04-30 11:12 37.38339 -122.30914 14585 ft 368 kts 128°
2026-04-30 11:12 37.36717 -122.28399 15262 ft 372 kts 128°
2026-04-30 11:12 37.35074 -122.25855 15932 ft 377 kts 128°
2026-04-30 11:12 37.33410 -122.23278 16585 ft 382 kts 128°
2026-04-30 11:13 37.31741 -122.20697 17216 ft 386 kts 128°
2026-04-30 11:13 37.30032 -122.18056 17844 ft 391 kts 128°
2026-04-30 11:13 37.28300 -122.15380 18460 ft 396 kts 128°
2026-04-30 11:13 37.26556 -122.12688 19014 ft 399 kts 128°
2026-04-30 11:14 37.24787 -122.09962 19580 ft 403 kts 128°
2026-04-30 11:14 37.23000 -122.07209 20132 ft 406 kts 128°
2026-04-30 11:14 37.21204 -122.04445 20678 ft 410 kts 128°
2026-04-30 11:14 37.19418 -122.01697 21204 ft 413 kts 128°
2026-04-30 11:15 37.17588 -121.98886 21748 ft 416 kts 128°
2026-04-30 11:15 37.15749 -121.96062 22276 ft 419 kts 128°
2026-04-30 11:15 37.13890 -121.93209 22779 ft 423 kts 128°
2026-04-30 11:15 37.12018 -121.90340 23329 ft 426 kts 128°
2026-04-30 11:16 37.10133 -121.87453 23793 ft 430 kts 128°
2026-04-30 11:16 37.08232 -121.84544 24220 ft 432 kts 128°
2026-04-30 11:16 37.06320 -121.81620 24662 ft 434 kts 128°
2026-04-30 11:16 37.04388 -121.78669 25075 ft 437 kts 128°
2026-04-30 11:17 37.02453 -121.75717 25521 ft 439 kts 128°
2026-04-30 11:17 37.00510 -121.72755 25938 ft 442 kts 128°
2026-04-30 11:17 36.98574 -121.69806 26338 ft 444 kts 128°
2026-04-30 11:17 36.96609 -121.66815 26743 ft 446 kts 128°
2026-04-30 11:18 36.94629 -121.63804 27136 ft 449 kts 128°
2026-04-30 11:18 36.90632 -121.57735 27917 ft 454 kts 128°
2026-04-30 11:18 36.88610 -121.54668 28280 ft 457 kts 128°
2026-04-30 11:19 36.86584 -121.51598 28656 ft 459 kts 128°
2026-04-30 11:19 36.84541 -121.48506 29018 ft 461 kts 129°
2026-04-30 11:19 36.82489 -121.45403 29374 ft 464 kts 129°
2026-04-30 11:19 36.80423 -121.42282 29732 ft 466 kts 129°
2026-04-30 11:20 36.78371 -121.39184 30075 ft 468 kts 129°
2026-04-30 11:20 36.76286 -121.36039 30370 ft 471 kts 129°
2026-04-30 11:20 36.74191 -121.32883 30645 ft 473 kts 129°
2026-04-30 11:20 36.72078 -121.29701 30931 ft 475 kts 129°
2026-04-30 11:21 36.69956 -121.26511 31081 ft 478 kts 129°
2026-04-30 11:21 36.67856 -121.23357 31086 ft 476 kts 129°
2026-04-30 11:21 36.63623 -121.17006 31071 ft 475 kts 129°
2026-04-30 11:22 36.59376 -121.10646 31066 ft 475 kts 129°
2026-04-30 11:22 36.55149 -121.04327 31067 ft 475 kts 129°
2026-04-30 11:23 36.50935 -120.98037 31066 ft 475 kts 129°
2026-04-30 11:24 36.44597 -120.88546 31066 ft 475 kts 129°
2026-04-30 11:24 36.40377 -120.82227 31066 ft 474 kts 129°
2026-04-30 11:25 36.34069 -120.72806 31062 ft 474 kts 130°
2026-04-30 11:26 36.25620 -120.60228 31056 ft 474 kts 130°
2026-04-30 11:26 36.21386 -120.53940 31051 ft 474 kts 130°
2026-04-30 11:27 36.17174 -120.47700 31054 ft 474 kts 130°
2026-04-30 11:27 36.12939 -120.41435 31052 ft 474 kts 130°
2026-04-30 11:28 36.07290 -120.33098 31046 ft 474 kts 130°
2026-04-30 11:29 36.03054 -120.26858 31043 ft 474 kts 130°
2026-04-30 11:29 35.96697 -120.17517 31035 ft 473 kts 130°
2026-04-30 11:30 35.90324 -120.08179 31030 ft 473 kts 130°
2026-04-30 11:31 35.86074 -120.01962 31031 ft 473 kts 130°
2026-04-30 11:31 35.84220 -119.98627 31014 ft 471 kts 116°
2026-04-30 11:31 35.82798 -119.94983 31025 ft 472 kts 116°
2026-04-30 11:32 35.79887 -119.87766 31024 ft 472 kts 116°
2026-04-30 11:32 35.76991 -119.80506 31019 ft 472 kts 116°
2026-04-30 11:33 35.72636 -119.69605 31016 ft 471 kts 116°
2026-04-30 11:33 35.69733 -119.62358 31017 ft 471 kts 116°
2026-04-30 11:34 35.66829 -119.55126 31012 ft 471 kts 116°
2026-04-30 11:34 35.63922 -119.47900 31016 ft 471 kts 116°
2026-04-30 11:35 35.61011 -119.40683 31016 ft 470 kts 116°
2026-04-30 11:35 35.58118 -119.33522 31014 ft 470 kts 116°
2026-04-30 11:36 35.55202 -119.26325 31015 ft 470 kts 116°
2026-04-30 11:36 35.52280 -119.19126 31016 ft 470 kts 116°
2026-04-30 11:37 35.49321 -119.11979 31009 ft 469 kts 122°
2026-04-30 11:37 35.47272 -119.08887 31014 ft 467 kts 138°
2026-04-30 11:37 35.44758 -119.06339 31019 ft 469 kts 141°
2026-04-30 11:38 35.39644 -119.01347 31017 ft 469 kts 142°
2026-04-30 11:38 35.34496 -118.96430 31016 ft 469 kts 142°
2026-04-30 11:39 35.29366 -118.91557 31016 ft 468 kts 142°
2026-04-30 11:39 35.24208 -118.86665 31013 ft 468 kts 142°
2026-04-30 11:40 35.19045 -118.81779 31010 ft 468 kts 142°
2026-04-30 11:40 35.13986 -118.76996 30735 ft 449 kts 142°
2026-04-30 11:41 35.11545 -118.74692 30232 ft 447 kts 142°
2026-04-30 11:41 35.09084 -118.72370 29573 ft 446 kts 142°
2026-04-30 11:41 35.06809 -118.69813 28939 ft 444 kts 129°
2026-04-30 11:41 35.04863 -118.66903 28488 ft 438 kts 128°
2026-04-30 11:42 35.02917 -118.64076 28039 ft 433 kts 127°
2026-04-30 11:42 35.00990 -118.61266 27494 ft 431 kts 127°
2026-04-30 11:42 34.99064 -118.58454 26933 ft 430 kts 127°
2026-04-30 11:42 34.97158 -118.55673 26496 ft 426 kts 127°
2026-04-30 11:43 34.95272 -118.52921 26029 ft 419 kts 127°
2026-04-30 11:43 34.93413 -118.50212 25575 ft 411 kts 127°
2026-04-30 11:43 34.91588 -118.47555 25119 ft 404 kts 127°
2026-04-30 11:43 34.89796 -118.44947 24676 ft 398 kts 127°
2026-04-30 11:44 34.88031 -118.42379 24210 ft 391 kts 127°
2026-04-30 11:44 34.86318 -118.39890 23800 ft 386 kts 127°
2026-04-30 11:44 34.84603 -118.37400 23352 ft 380 kts 127°
2026-04-30 11:44 34.82908 -118.34941 22908 ft 377 kts 127°
2026-04-30 11:45 34.81226 -118.32502 22503 ft 375 kts 127°
2026-04-30 11:45 34.79551 -118.30075 22108 ft 372 kts 127°
2026-04-30 11:45 34.77883 -118.27659 21639 ft 374 kts 127°
2026-04-30 11:45 34.76196 -118.25219 21263 ft 378 kts 127°
2026-04-30 11:46 34.74498 -118.22764 20891 ft 379 kts 128°
2026-04-30 11:46 34.72796 -118.20304 20513 ft 378 kts 128°
2026-04-30 11:46 34.71105 -118.17863 20134 ft 376 kts 128°
2026-04-30 11:46 34.69427 -118.15441 19752 ft 374 kts 128°
2026-04-30 11:47 34.67752 -118.13025 19385 ft 372 kts 128°
2026-04-30 11:47 34.66108 -118.10657 19018 ft 370 kts 128°
2026-04-30 11:47 34.64452 -118.08272 18642 ft 368 kts 128°
2026-04-30 11:47 34.62881 -118.05828 18190 ft 366 kts 119°
2026-04-30 11:48 34.61658 -118.03136 17788 ft 362 kts 117°
2026-04-30 11:48 34.60444 -118.00468 17414 ft 358 kts 117°
2026-04-30 11:48 34.59242 -117.97831 17055 ft 355 kts 117°
2026-04-30 11:48 34.58049 -117.95219 16682 ft 351 kts 118°
2026-04-30 11:49 34.56868 -117.92633 16309 ft 348 kts 118°
2026-04-30 11:49 34.55698 -117.90074 15949 ft 345 kts 118°
2026-04-30 11:49 34.54532 -117.87525 15591 ft 342 kts 118°
2026-04-30 11:49 34.53396 -117.85044 15236 ft 339 kts 118°
2026-04-30 11:50 34.52250 -117.82544 14883 ft 337 kts 118°
2026-04-30 11:50 34.51117 -117.80073 14533 ft 334 kts 118°
2026-04-30 11:50 34.49989 -117.77615 14184 ft 331 kts 118°
2026-04-30 11:50 34.48870 -117.75177 13827 ft 329 kts 118°
2026-04-30 11:51 34.47755 -117.72749 13453 ft 327 kts 118°
2026-04-30 11:51 34.46663 -117.70373 13092 ft 324 kts 118°
2026-04-30 11:51 34.45574 -117.68008 12882 ft 316 kts 118°
2026-04-30 11:51 34.44517 -117.65712 12750 ft 306 kts 118°
2026-04-30 11:52 34.43493 -117.63488 12617 ft 297 kts 118°
2026-04-30 11:52 34.42509 -117.61353 12390 ft 291 kts 118°
2026-04-30 11:52 34.41523 -117.59216 12084 ft 289 kts 118°
2026-04-30 11:52 34.40544 -117.57095 11779 ft 287 kts 118°
2026-04-30 11:53 34.39574 -117.54995 11497 ft 284 kts 118°
2026-04-30 11:53 34.38613 -117.52916 11195 ft 282 kts 118°
2026-04-30 11:53 34.37651 -117.50835 10863 ft 283 kts 118°
2026-04-30 11:53 34.36679 -117.48734 10583 ft 288 kts 118°
2026-04-30 11:54 34.35693 -117.46605 10300 ft 290 kts 118°
2026-04-30 11:54 34.34715 -117.44495 10138 ft 284 kts 118°
2026-04-30 11:54 34.33759 -117.42430 9940 ft 277 kts 118°
2026-04-30 11:54 34.32816 -117.40398 9634 ft 275 kts 118°
2026-04-30 11:55 34.31896 -117.38415 9342 ft 272 kts 118°
2026-04-30 11:55 34.30966 -117.36427 9062 ft 269 kts 121°
2026-04-30 11:55 34.29764 -117.34866 8751 ft 270 kts 146°
2026-04-30 11:55 34.28029 -117.34021 8473 ft 269 kts 168°
2026-04-30 11:56 34.26191 -117.33638 8232 ft 266 kts 169°
2026-04-30 11:56 34.24370 -117.33270 7999 ft 262 kts 168°
2026-04-30 11:56 34.22624 -117.32694 7723 ft 258 kts 161°
2026-04-30 11:56 34.20909 -117.32064 7437 ft 256 kts 162°
2026-04-30 11:57 34.19212 -117.31459 7186 ft 251 kts 162°
2026-04-30 11:57 34.17563 -117.30863 6901 ft 249 kts 161°
2026-04-30 11:57 34.15894 -117.30300 6554 ft 248 kts 170°
2026-04-30 11:57 34.14186 -117.30529 6165 ft 249 kts 202°
2026-04-30 11:58 34.12690 -117.31493 5888 ft 238 kts 210°
2026-04-30 11:58 34.11273 -117.32482 5580 ft 231 kts 210°
2026-04-30 11:58 34.10362 -117.33122 5378 ft 226 kts 210°
2026-04-30 11:58 34.08615 -117.34356 4988 ft 211 kts 211°
2026-04-30 11:59 34.07381 -117.35230 4719 ft 200 kts 211°
2026-04-30 11:59 34.06290 -117.36189 4399 ft 190 kts 233°
2026-04-30 11:59 34.05868 -117.37094 4272 ft 186 kts 250°
2026-04-30 11:59 34.05558 -117.38582 4099 ft 181 kts 264°
2026-04-30 12:00 34.05494 -117.40060 3895 ft 169 kts 271°
2026-04-30 12:00 34.05495 -117.41452 3686 ft 163 kts 271°
2026-04-30 12:00 34.05497 -117.42810 3473 ft 161 kts 271°
2026-04-30 12:00 34.05498 -117.44160 3269 ft 160 kts 271°
2026-04-30 12:01 34.05498 -117.45500 3058 ft 159 kts 270°
2026-04-30 12:01 34.05498 -117.46833 2844 ft 158 kts 270°
2026-04-30 12:01 34.05498 -117.48160 2629 ft 158 kts 270°
2026-04-30 12:01 34.05497 -117.49480 2411 ft 157 kts 270°
2026-04-30 12:02 34.05497 -117.50775 2196 ft 156 kts 270°
2026-04-30 12:02 34.05497 -117.52075 1992 ft 154 kts 270°
2026-04-30 12:02 34.05497 -117.53368 1784 ft 153 kts 270°
2026-04-30 12:02 34.05497 -117.54653 1571 ft 153 kts 270°
2026-04-30 12:03 34.05497 -117.55932 1366 ft 152 kts 269°
2026-04-30 12:03 34.05497 -117.58459 964 ft 149 kts 269°
2026-04-30 12:03 34.05495 -117.59548 947 ft 100 kts 270°
2026-04-30 12:04 34.05497 -117.60100 948 ft 41 kts 270°
2026-04-30 12:04 34.05526 -117.60438 947 ft 39 kts 291°
2026-04-30 12:04 34.05572 -117.60548 948 ft 0 kts 301°
2026-04-30 12:05 34.05574 -117.60552 948 ft 2 kts 301°
2026-04-30 12:05 34.05587 -117.60577 948 ft 6 kts 301°
2026-04-30 12:05 34.05622 -117.60628 948 ft 10 kts 315°
2026-04-30 12:05 34.05684 -117.60703 948 ft 15 kts 315°
2026-04-30 12:06 34.05780 -117.60753 946 ft 18 kts 40°
2026-04-30 12:06 34.05797 -117.60592 948 ft 22 kts 88°
2026-04-30 12:06 34.05799 -117.60389 948 ft 26 kts 90°
2026-04-30 12:06 34.05797 -117.60150 948 ft 30 kts 90°
2026-04-30 12:07 34.05800 -117.59887 947 ft 32 kts 89°
2026-04-30 12:07 34.05797 -117.59615 946 ft 33 kts 89°
2026-04-30 12:07 34.05798 -117.59330 946 ft 34 kts 90°
2026-04-30 12:07 34.05800 -117.59094 947 ft 14 kts 90°
2026-04-30 12:08 34.05835 -117.58991 947 ft 15 kts 12°
2026-04-30 12:08 34.05895 -117.58947 947 ft 8 kts 82°
2026-04-30 12:08 34.05904 -117.58886 946 ft 6 kts 46°
2026-04-30 12:08 34.05952 -117.58878 947 ft 8 kts
2026-04-30 12:09 34.05976 -117.58878 947 ft 2 kts 359°
2026-04-30 12:09 34.05981 -117.58878 947 ft 1 kts 359°
2026-04-30 12:09 34.05982 -117.58878 947 ft 0 kts 359°